BURGAS current weather conditions

sailwx.info

Last reported at 2016-Aug-23 15:28 UTC.
Time now 2016-Dec-09 03:59 UTC

Location: N 42°34' E 027°31'.
View on Google Maps.

See reports from other nearby stations

  
Tides and Currents Weather Stations Pressure Air Temp Water Temp Dewpoint Dewpoint Depression Visibility Wind Speed Wind Dir Waves Ship Positions
date/time (UTC)wind fromknots sea level pressurealtimeterstation pressurevisibilityair tempwater tempwave heightnotes
2016-Dec-09 02:30 260 19 5.4-0.0
2016-Dec-09 02:00 260 13 5.4-0.0
2016-Dec-09 01:30 270 11 5.4-0.0
2016-Dec-09 01:00 250 9 5.4-1.0
2016-Dec-09 00:30 260 12 5.4-1.0
2016-Dec-09 00:00 270 11 5.4-1.0
2016-Dec-08 23:30 260 13 5.4-1.0
2016-Dec-08 23:00 270 13 5.4-1.0
2016-Dec-08 22:30 260 13 5.4-1.0
2016-Dec-08 22:00 260 13 5.4-1.0
2016-Dec-08 21:30 260 14 5.4-0.0
2016-Dec-08 21:00 270 13 5.4-1.0
2016-Dec-08 20:30 270 9 5.4-1.0
2016-Dec-08 20:00 250 12 5.4-1.0
2016-Dec-08 19:30 250 8 5.4-1.0
2016-Dec-08 19:00 250 8 5.4-1.0
2016-Dec-08 18:30 230 9 5.4-1.0
2016-Dec-08 18:00 230 9 5.4-1.0
2016-Dec-08 17:30 220 6 5.4-2.0
2016-Dec-08 17:00 250 7 5.4-0.0
2016-Dec-08 16:30 260 6 5.4-0.0
2016-Dec-08 16:00 250 6 5.4-1.0
2016-Dec-08 15:30 250 9 5.4 1.0
2016-Dec-08 15:00 240 8 5.4 2.0
2016-Dec-08 14:30 240 9 5.4 3.0
2016-Dec-08 14:00 230 12 5.4 4.0
2016-Dec-08 13:30 230 13 5.4 5.0
2016-Dec-08 13:00 250 14 5.4 5.0
2016-Dec-08 12:30 240 14 5.4 5.0
2016-Dec-08 12:00 230 14 5.4 5.0
2016-Dec-08 11:30 240 14 5.4 5.0
2016-Dec-08 11:00 250 13 5.4 5.0
2016-Dec-08 10:30 230 13 5.4 4.0
2016-Dec-08 10:00 240 11 5.4 3.0
2016-Dec-08 09:30 250 9 5.4 2.0
2016-Dec-08 09:00 250 8 5.4 1.0
2016-Dec-08 08:30 240 6 5.4-0.0
2016-Dec-08 08:00 240 6 5.4-1.0
2016-Dec-08 07:30 240 8 5.4-3.0
2016-Dec-08 07:00 240 6 5.4-4.0
2016-Dec-08 06:30 230 8 5.4-5.0
2016-Dec-08 06:00 230 7 5.4-7.0
2016-Dec-08 05:30 250 6 5.4-7.0
2016-Dec-08 05:00 240 6 5.4-7.0
2016-Dec-08 04:30 210 5 5.4-7.0
2016-Dec-08 04:00 270 4 5.4-6.0
2016-Dec-08 03:30 240 5 5.4-6.0
2016-Dec-08 03:00 230 4 5.4-6.0
2016-Dec-08 02:30 210 5 5.4-5.0
2016-Dec-08 02:00 210 4 5.4-5.0
2016-Dec-08 01:30 240 6 5.4-5.0
2016-Dec-08 01:00 260 6 5.4-4.0
2016-Dec-08 00:30 290 4 5.4-3.0
2016-Dec-08 00:00 330 4 5.4-3.0
2016-Dec-07 23:30 310 2 5.4-3.0
2016-Dec-07 23:00 340 2 5.4-2.0
2016-Dec-07 22:30 290 4 5.4-4.0
2016-Dec-07 22:00 310 5 5.4-2.0
2016-Dec-07 21:30 280 4 5.4-3.0
2016-Dec-07 21:00 340 5 5.4-5.0
2016-Dec-07 20:30 320 5 5.4-3.0
2016-Dec-07 20:00 300 2 5.4-2.0
2016-Dec-07 19:30 300 6 5.4-3.0
2016-Dec-07 19:00 300 4 5.4-1.0
2016-Dec-07 18:30 320 5 5.4-0.0
2016-Dec-07 18:00 340 6 5.4-0.0
2016-Dec-07 17:30 360 7 5.4-1.0
2016-Dec-07 17:00 360 11 5.4 1.0
2016-Dec-07 16:30 010 5 5.4 1.0
2016-Dec-07 16:00 010 8 5.4 1.0
2016-Dec-07 15:30 360 6 5.4 1.0
2016-Dec-07 15:00 010 6 5.4 2.0
2016-Dec-07 14:30 360 12 5.4 4.0
2016-Dec-07 14:00 010 7 5.4 5.0
2016-Dec-07 13:30 010 12 5.4 5.0
2016-Dec-07 13:00 360 14 5.4 5.0
2016-Dec-07 12:30 010 14 5.4 5.0
2016-Dec-07 12:00 010 13 5.4 6.0
2016-Dec-07 11:30 030 12 5.4 7.0
2016-Dec-07 11:00 020 12 5.4 5.0
2016-Dec-07 10:30 020 14 5.4 5.0
2016-Dec-07 10:00 020 14 5.4 6.0
2016-Dec-07 09:30 020 15 5.4 6.0
2016-Dec-07 09:00 020 14 5.4 6.0
2016-Dec-07 08:30 020 13 5.4 5.0
2016-Dec-07 08:00 010 5 5.4 3.0
2016-Dec-07 07:30 010 6 5.4 3.0
2016-Dec-07 07:00 020 6 5.4 3.0
2016-Dec-07 06:30 010 5 5.4 2.0
2016-Dec-07 06:00 330 5 5.4 1.0
2016-Dec-07 05:30 010 5 5.4 2.0
2016-Dec-07 05:00 010 4 5.4 1.0
2016-Dec-07 04:30 350 4 5.4 2.0
2016-Dec-07 04:00 330 7 5.4 2.0
2016-Dec-07 03:30 350 12 5.4 4.0
2016-Dec-07 03:00 280 5 5.4 2.0